sat.trackr.live / text

‹ back to catalog

UNKNOWN

NORAD 82369

UNKNOWN UNKNOWN UNKNOWN

§ Identity

Operator
Country
Launch date
Launch site
Launch vehicle
Mass (kg)
RCS (m²)

External: N2YO · Heavens-Above

§ Orbital elements

Epoch: 2026-09-10T07:22:09.441408Z

Period
102.98 min
Inclination
98.8892°
Eccentricity
0.0082201
Mean motion
13.98303594 rev/d
Perigee alt
839.9 km
Apogee alt
959.5 km
Semi-major
7,277.8 km
B*
1.6071e-4
RAAN
265.0861°
Arg perigee
308.5903°
Mean anomaly
50.7918°
Rev number
59,512

§ Raw data

UNKNOWN1 82369U          26253.30705372  .00000193  00000+0  16071-3 0  99932 82369  98.8892 265.0861 0082201 308.5903  50.7918 13.98303594595120

JSON: /api/v1/satellites/82369 · /tle

For live sub-satellite position, see the globe view (requires WebGL).

§ Visibility from observer

Set your observer location to see the next 7 days of passes ≥ 10°. The values pass through the URL so the page stays shareable.

No JS? Fill the form by hand. The geolocation button needs JavaScript.